Location: Tauranga
(37.6860°S, 176.1670°E)
Time: 06:21:59
(UTC+12:00)

ISS - Visible Passes

Search period start: 15 August 2020 00:00
Search period end: 25 August 2020 00:00
Orbit: 418 x 420 km, 51.6° (Epoch: 15 August)

Date Brightness Start Highest point End Pass type
(mag) Time Alt. Az. Time Alt. Az. Time Alt. Az.
17 Aug -0.7 20:02:23 10° NW 20:02:51 13° NW 20:02:51 13° NW visible
18 Aug -3.3 19:14:56 10° NNW 19:17:53 48° NNE 19:17:53 48° NNE visible
19 Aug -2.6 18:27:46 10° NNW 18:30:44 28° NE 18:32:49 16° E visible
19 Aug -1.0 20:04:24 10° W 20:05:48 20° W 20:05:48 20° W visible
20 Aug -3.0 19:16:27 10° WNW 19:19:45 49° SW 19:20:37 38° S visible
21 Aug -3.7 18:28:42 10° NW 18:32:06 87° SW 18:35:18 12° SE visible
21 Aug -0.7 20:07:10 10° WSW 20:08:17 14° SW 20:08:17 14° SW visible
22 Aug -1.6 19:18:47 10° W 19:21:30 21° SSW 19:22:52 17° S visible
23 Aug -2.1 18:30:37 10° W 18:33:42 31° SSW 18:36:48 10° SSE visible
24 Aug -1.0 19:21:55 10° SW 19:23:25 12° SSW 19:24:45 10° S visible
